Home > Weather > Amman > Past weeks

Flag for Jordan Weather for the Past 2 Weeks in Amman, Jordan

Now
45 °F

Fog.


Feels Like: 45 °F
Forecast: 44 / 59 °F
Wind: No wind

Location: Amman Airport

Current Time: Feb 11, 2016 at 7:45:39 AM

Latest Report: Feb 11, 2016 at 7:00 AM


Visibility: 2 mi

Pressure: 30.21 "Hg (27.35 "Hg at 816m altitude)

Humidity: 87%

Dew point: 41 °F

Location of AmmanLocation

Historic Weather in Amman — Graph

°F

Amman Temperature Yesterday

Maximum temperature yesterday: 55 °F (at 3:00 PM)
Minimum temperature yesterday: 41 °F (at 3:00 AM)
Average temperature yesterday: 47 °F

High & Low Weather Summary for the Past Weeks

 TemperatureHumidityPressure
High64 °F (Feb 4, 2:00 PM)100% (Jan 27, 6:00 AM)30.42 "Hg (Jan 27, 6:00 AM)
Low28 °F (Jan 28, 5:00 AM)16% (Feb 1, 3:00 PM)29.89 "Hg (Feb 7, 4:00 AM)
Average45 °F64%30.19 "Hg
* Reported Jan 27 6:00 AM — Feb 11 6:00 AM, Amman, Weather by CustomWeather, © 2016

Note: Actual official high and low records may vary slightly from our data, if they occured in-between our weather recording intervals... More about our weather records

Advertising

Amman Weather History for the Previous 24 Hours

 ConditionsComfort  
Time TempWeatherWind HumidityBarometerVisibility
6:00 AM
Thu, Feb 11
45 °FFog.No wind93%30.21 "Hg2 mi
5:00 AM45 °FPassing clouds.7 mph87%30.15 "Hg2 mi
4:00 AM45 °FPassing clouds.5 mph87%30.15 "Hg3 mi
3:00 AM45 °FPassing clouds.5 mph87%30.15 "Hg3 mi
2:00 AM45 °FPassing clouds.5 mph87%30.15 "Hg3 mi
1:00 AM46 °FPassing clouds.5 mph76%30.15 "Hg3 mi
12:00 AM46 °FPassing clouds.5 mph76%30.15 "Hg3 mi
11:00 PM
Wed, Feb 10
46 °FPassing clouds.5 mph82%30.12 "Hg3 mi
10:00 PM46 °FPassing clouds.5 mph76%30.12 "Hg3 mi
9:00 PM46 °FPassing clouds.5 mph76%30.12 "Hg3 mi
8:00 PM48 °FPassing clouds.5 mph71%30.12 "Hg3 mi
7:00 PM48 °FPassing clouds.7 mph66%30.12 "Hg3 mi
6:00 PM48 °FPassing clouds.7 mph66%30.12 "Hg3 mi
5:00 PM50 °FScattered clouds.12 mph58%30.09 "Hg3 mi
4:00 PM54 °FScattered clouds.3 mph51%30.07 "Hg3 mi
3:00 PM55 °FScattered clouds.3 mph44%30.07 "Hg3 mi
2:00 PM54 °FScattered clouds.No wind51%30.07 "Hg3 mi
12:00 PM52 °FScattered clouds.6 mph50%30.07 "Hg3 mi
11:00 AM52 °FScattered clouds.9 mph50%30.09 "Hg3 mi
10:00 AM46 °FScattered clouds.5 mph53%30.09 "Hg3 mi
9:00 AM45 °FScattered clouds.6 mph61%30.09 "Hg2 mi
8:00 AM41 °FBroken clouds.No wind70%30.09 "Hg2 mi
7:00 AM41 °FScattered clouds.No wind76%30.09 "Hg2 mi
Weather by CustomWeather, © 2016

See weather overviewHow to use our weather pages